sat.trackr.live / text

‹ back to catalog

STARLINK-3818

NORAD 52340 · 2022-045K

PAYLOAD ACTIVE UNKNOWN

§ Identity

Operator
Country
US
Launch date
2022-04-29
Launch site
AFETR
Launch vehicle
Mass (kg)
RCS (m²)

Purposes: comms

External: N2YO · Heavens-Above · Gunter

§ Orbital elements

Epoch: 2026-05-24T21:33:18.324000Z

Period
95.44 min
Inclination
53.2128°
Eccentricity
0.0001092
Mean motion
15.08835641 rev/d
Perigee alt
539.0 km
Apogee alt
540.5 km
Semi-major
6,917.9 km
B*
2.0252e-5
RAAN
217.0065°
Arg perigee
98.5255°
Mean anomaly
261.5861°
Rev number
22,727

§ Raw data

STARLINK-38181 52340U 22045K   26144.89812875  .00000034  00000+0  20252-4 0  99932 52340  53.2128 217.0065 0001092  98.5255 261.5861 15.08835641227274

JSON: /api/v1/satellites/52340 · /tle

For live sub-satellite position, see the globe view (requires WebGL).

§ Visibility from observer

Set your observer location to see the next 7 days of passes ≥ 10°. The values pass through the URL so the page stays shareable.

No JS? Fill the form by hand. The geolocation button needs JavaScript.